Weather History for Menomonie, WI

Change the Weather History Date:

Monday, April 22, 2013

  Actual Average (KEAU) Record (KEAU)
Temperature  
Mean Temperature 39 °F 49 °F  
Max Temperature 46 °F 61 °F 90 °F (1980)
Min Temperature 32 °F 37 °F 19 °F (1986)
Degree Days  
Heating Degree Days 26 16  
Month to date heating degree days 462  
Since 1 July heating degree days 7527  
Cooling Degree Days 0 0  
Month to date cooling degree days 0  
Year to date cooling degree days 0  
Moisture  
Dew Point 36 °F    
Average Humidity 96    
Maximum Humidity 100    
Minimum Humidity 81    
Precipitation  
Precipitation 0.63 in 0.09 in 0.90 in (1925)
Month to date precipitation 1.90  
Year to date precipitation 5.33  
Snow  
Snow 0.00 in 0.10 in 4.90 in (2002)
Month to date snowfall 1.7  
Since 1 July snowfall 46.6  
Snow Depth -    
Sea Level Pressure  
Sea Level Pressure 30.13 in    
Wind  
Wind Speed 8 mph (NNW)    
Max Wind Speed 16 mph    
Max Gust Speed 25 mph    
Visibility 5 miles    
Events Rain , Snow    
T = Trace of Precipitation, MM = Missing Value Source: NWS Daily Summary

Daily Weather History Graph

Daily Weather History Graph

Search for Another Location

Airport:

Trip Planner

Search our weather history database for the weather conditions in past years. The results will help you decide how hot, cold, wet, or windy it might be!

Date:

Astronomy

Apr. 22, 2013 Rise Set
Actual Time 6:10 AM CDT 8:01 PM CDT
Civil Twilight 5:39 AM CDT 8:33 PM CDT
Nautical Twilight 5:01 AM CDT 9:11 PM CDT
Astronomical Twilight 4:19 AM CDT 9:53 PM CDT
Moon 4:44 PM CDT (4/22) 4:14 AM CDT (4/22)
Length of Visible Light 14h 53m
Length of Day
13h 51m
Waxing Gibbous, 88% of the Moon is Illuminated
Apr 22
Waxing Gibbous
Apr 25
Full
May 2
Last Quarter
May 9
New
May 17
First Quarter

Hourly Weather History & Observations

Time (CDT) Temp. Windchill Dew Point Humidity Pressure Visibility Wind Dir Wind Speed Gust Speed Precip Events Conditions
12:15 AM 44.6 °F 40.7 °F 44.6 °F 100% 30.11 in 7.0 mi South 6.9 mph - N/A   Overcast
12:35 AM 46.4 °F 42.4 °F 46.4 °F 100% 30.11 in 7.0 mi WSW 8.1 mph - N/A   Overcast
12:55 AM 44.6 °F 40.2 °F 44.6 °F 100% 30.12 in 10.0 mi WSW 8.1 mph - N/A   Overcast
1:15 AM 44.6 °F 40.2 °F 44.6 °F 100% 30.12 in 7.0 mi WSW 8.1 mph - N/A   Overcast
1:35 AM 44.6 °F 40.2 °F 44.6 °F 100% 30.13 in 5.0 mi WSW 8.1 mph - N/A   Drizzle
1:55 AM 42.8 °F 37.0 °F 42.8 °F 100% 30.13 in 3.0 mi WSW 10.4 mph - N/A   Light Drizzle
2:15 AM 42.8 °F 37.0 °F 42.8 °F 100% 30.13 in 2.5 mi West 10.4 mph - N/A   Overcast
2:35 AM 41.0 °F 34.7 °F 41.0 °F 100% 30.13 in 2.5 mi West 10.4 mph - N/A   Overcast
2:55 AM 41.0 °F 37.1 °F 41.0 °F 100% 30.13 in 3.0 mi West 5.8 mph - N/A   Overcast
3:15 AM 41.0 °F 36.4 °F 41.0 °F 100% 30.14 in 4.0 mi West 6.9 mph - N/A   Overcast
3:35 AM 41.0 °F 37.1 °F 41.0 °F 100% 30.13 in 4.0 mi West 5.8 mph - N/A   Overcast
3:55 AM 39.2 °F 35.0 °F 39.2 °F 100% 30.14 in 2.0 mi West 5.8 mph - N/A   Overcast
4:15 AM 39.2 °F 33.6 °F 39.2 °F 100% 30.15 in 3.0 mi WNW 8.1 mph - N/A   Overcast
4:35 AM 37.4 °F 32.8 °F 37.4 °F 100% 30.15 in 5.0 mi WNW 5.8 mph - N/A   Overcast
4:55 AM 37.4 °F 31.4 °F 37.4 °F 100% 30.16 in 5.0 mi WNW 8.1 mph - N/A   Overcast
5:15 AM 37.4 °F 34.9 °F 37.4 °F 100% 30.16 in 2.5 mi WNW 3.5 mph - N/A Rain Light Rain
5:35 AM 37.4 °F 34.9 °F 37.4 °F 100% 30.16 in 3.0 mi WNW 3.5 mph - N/A   Overcast
5:55 AM 37.4 °F 32.1 °F 37.4 °F 100% 30.17 in 2.5 mi WNW 6.9 mph - N/A   Overcast
6:15 AM 37.4 °F 33.8 °F 37.4 °F 100% 30.17 in 3.0 mi NW 4.6 mph - N/A   Overcast
6:35 AM 37.4 °F 31.4 °F 37.4 °F 100% 30.18 in 5.0 mi NNW 8.1 mph - N/A   Overcast
6:55 AM 37.4 °F 33.8 °F 37.4 °F 100% 30.18 in 5.0 mi NNW 4.6 mph - N/A   Overcast
7:15 AM 37.4 °F 32.8 °F 37.4 °F 100% 30.18 in 5.0 mi NNW 5.8 mph - N/A   Overcast
7:35 AM 37.4 °F 32.1 °F 37.4 °F 100% 30.19 in 5.0 mi NNW 6.9 mph - N/A   Overcast
7:55 AM 37.4 °F 32.1 °F 37.4 °F 100% 30.19 in 5.0 mi North 6.9 mph - N/A   Overcast
8:15 AM 37.4 °F 30.8 °F 37.4 °F 100% 30.19 in 7.0 mi North 9.2 mph - N/A   Overcast
8:35 AM 37.4 °F 31.4 °F 37.4 °F 100% 30.18 in 7.0 mi North 8.1 mph - N/A   Overcast
8:55 AM 37.4 °F 32.1 °F 35.6 °F 93% 30.19 in 7.0 mi North 6.9 mph - N/A   Overcast
9:15 AM 37.4 °F 32.1 °F 35.6 °F 93% 30.19 in 10.0 mi NNE 6.9 mph - N/A   Overcast
9:35 AM 37.4 °F 30.3 °F 35.6 °F 93% 30.18 in 10.0 mi North 10.4 mph - N/A   Overcast
9:55 AM 37.4 °F 31.4 °F 35.6 °F 93% 30.18 in 10.0 mi North 8.1 mph - N/A   Overcast
10:15 AM 37.4 °F 31.4 °F 33.8 °F 87% 30.18 in 10.0 mi North 8.1 mph - N/A   Overcast
10:35 AM 37.4 °F 31.4 °F 33.8 °F 87% 30.19 in 10.0 mi North 8.1 mph - N/A   Overcast
10:55 AM 37.4 °F 32.1 °F 33.8 °F 87% 30.19 in 10.0 mi North 6.9 mph - N/A   Overcast
11:15 AM 37.4 °F 32.8 °F 33.8 °F 87% 30.20 in 10.0 mi NNE 5.8 mph - N/A   Overcast
11:35 AM 37.4 °F 32.1 °F 35.6 °F 93% 30.20 in 10.0 mi North 6.9 mph - N/A   Overcast
11:55 AM 37.4 °F 30.8 °F 35.6 °F 93% 30.19 in 3.0 mi North 9.2 mph - N/A   Overcast
12:15 PM 37.4 °F 31.4 °F 35.6 °F 93% 30.19 in 4.0 mi North 8.1 mph - N/A   Overcast
12:35 PM 37.4 °F 31.4 °F 35.6 °F 93% 30.18 in 10.0 mi NNE 8.1 mph - N/A   Overcast
12:55 PM 39.2 °F 32.5 °F 35.6 °F 87% 30.16 in 7.0 mi North 10.4 mph - N/A   Overcast
1:15 PM 39.2 °F 32.5 °F 35.6 °F 87% 30.15 in 10.0 mi North 10.4 mph - N/A   Overcast
1:35 PM 39.2 °F 32.5 °F 33.8 °F 81% 30.14 in 10.0 mi NNE 10.4 mph - N/A   Overcast
1:55 PM 39.2 °F 33.0 °F 33.8 °F 81% 30.14 in 10.0 mi NNE 9.2 mph - N/A   Overcast
2:15 PM 39.2 °F 33.0 °F 33.8 °F 81% 30.14 in 10.0 mi NE 9.2 mph - N/A   Overcast
2:35 PM 39.2 °F 32.5 °F 33.8 °F 81% 30.12 in 10.0 mi NNE 10.4 mph - N/A   Overcast
2:55 PM 39.2 °F 33.0 °F 35.6 °F 87% 30.10 in 4.0 mi NE 9.2 mph - N/A   Overcast
3:15 PM 37.4 °F 32.8 °F 35.6 °F 93% 30.10 in 10.0 mi NE 5.8 mph - N/A   Light Drizzle
3:35 PM 37.4 °F 30.8 °F 35.6 °F 93% 30.09 in 3.0 mi NNE 9.2 mph - 0.03 in Rain Light Rain
3:55 PM 37.4 °F - 35.6 °F 93% 30.10 in 4.0 mi Calm Calm - 0.04 in Rain Rain
4:15 PM 37.4 °F 32.1 °F 37.4 °F 100% 30.10 in 1.5 mi NW 6.9 mph - 0.06 in Rain Rain
4:35 PM 37.4 °F 30.8 °F 37.4 °F 100% 30.09 in 3.0 mi NNW 9.2 mph - 0.12 in Rain Rain
4:55 PM 37.4 °F 31.4 °F 37.4 °F 100% 30.08 in 3.0 mi NNW 8.1 mph - 0.16 in Rain Rain
5:15 PM 35.6 °F 28.0 °F 35.6 °F 100% 30.08 in 2.5 mi NW 10.4 mph - 0.05 in Rain Rain
5:35 PM 35.6 °F 27.5 °F 35.6 °F 100% 30.08 in 3.0 mi NNW 11.5 mph - 0.09 in Rain Rain
5:55 PM 35.6 °F 26.2 °F 35.6 °F 100% 30.06 in 2.5 mi North 15.0 mph 21.9 mph 0.13 in Rain Rain
6:15 PM 35.6 °F 27.5 °F 35.6 °F 100% 30.06 in 3.0 mi NNW 11.5 mph - 0.03 in Rain Rain
6:35 PM 33.8 °F 25.8 °F 33.8 °F 100% 30.07 in 2.5 mi NNW 10.4 mph - 0.07 in Rain Light Rain
7:55 PM 33.8 °F 26.4 °F 33.8 °F 100% 30.06 in 4.0 mi North 9.2 mph - 0.04 in Rain Heavy Rain
8:15 PM 33.8 °F 24.8 °F 33.8 °F 100% 30.06 in 4.0 mi North 12.7 mph 18.4 mph 0.01 in   Overcast
8:35 PM 33.8 °F 26.4 °F 33.8 °F 100% 30.07 in 4.0 mi North 9.2 mph - 0.02 in Rain Light Rain
8:55 PM 32.0 °F 23.0 °F 32.0 °F 100% 30.07 in 2.5 mi NNW 11.5 mph - 0.04 in Snow Light Snow
9:15 PM 32.0 °F 22.5 °F 32.0 °F 100% 30.07 in 5.0 mi NNW 12.7 mph - 0.01 in Snow Light Snow
9:35 PM 32.0 °F 22.1 °F 32.0 °F 100% 30.07 in 3.0 mi NNW 13.8 mph - 0.04 in Snow Light Snow
9:55 PM 32.0 °F 22.5 °F 32.0 °F 100% 30.06 in 5.0 mi NNW 12.7 mph 25.3 mph 0.05 in   Overcast
10:15 PM 32.0 °F 21.2 °F 32.0 °F 100% 30.06 in 7.0 mi North 16.1 mph - 0.01 in   Overcast
10:35 PM 32.0 °F 23.0 °F 32.0 °F 100% 30.07 in 2.5 mi NNW 11.5 mph - 0.02 in Snow Light Snow
10:55 PM 32.0 °F 22.5 °F 32.0 °F 100% 30.06 in 3.0 mi North 12.7 mph - 0.05 in Snow Light Snow
11:15 PM 32.0 °F 23.0 °F 32.0 °F 100% 30.05 in 2.0 mi North 11.5 mph 16.1 mph 0.01 in Snow Light Snow
11:35 PM 32.0 °F 23.6 °F 32.0 °F 100% 30.04 in 1.2 mi North 10.4 mph - 0.04 in Snow Light Snow
11:55 PM 32.0 °F 22.1 °F 32.0 °F 100% 30.03 in 1.0 mi North 13.8 mph - 0.05 in Snow Light Snow